User: anonymous   Login
Location: Unspecified
(0.0000°N, 0.0000°E)
Time: 13:42:20
(UTC+00:00)
Language:

ELEKTRO-L - Orbit

View from above orbital plane
View from above orbital plane
View from above satellite
View from above satellite

Ground track
Ground track

The orbit data is extracted from the following two-line orbital elements,

1 37344U 11001A   16345.81434898 -.00000152  00000-0  00000+0 0  9996
2 37344   2.0544  78.4845 0003181 253.2116  22.1741  1.00248880 21615
Epoch (UTC): 10 December 2016 19:32:39
Eccentricity: 0.0003181
inclination: 2.0544°
perigee height: 35779 km
apogee height: 35806 km
right ascension of ascending node: 78.4845°
argument of perigee: 253.2116°
revolutions per day: 1.00248880
mean anomaly at epoch: 22.1741°
orbit number at epoch: 2161

The dashed part of the orbit path shows where the satellite is in the earth's shadow,  

DLR